Time,TemperatureF,DewpointF,PressureIn,WindDirection,WindDirectionDegrees,WindSpeedMPH,WindSpeedGustMPH,Humidity,HourlyPrecipIn,Conditions,Clouds,dailyrainin,SoftwareType,DateUTC
2013-03-19 00:00:00,27.0,16.8,30.08,West,268,6.0,9.0,65,0.00,,SKC,0.00,VWS V14.01,2013-03-19 05:00:00,
2013-03-19 00:02:00,27.0,17.2,30.08,West,275,5.0,8.0,66,0.00,,SKC,0.00,VWS V14.01,2013-03-19 05:02:00,
2013-03-19 00:06:00,27.0,17.2,30.08,WNW,286,2.0,8.0,66,0.00,,SKC,0.00,VWS V14.01,2013-03-19 05:06:00,
2013-03-19 00:10:00,26.9,17.4,30.09,WNW,296,3.0,8.0,67,0.00,,SKC,0.00,VWS V14.01,2013-03-19 05:10:00,
2013-03-19 00:14:00,26.9,17.8,30.09,WNW,288,2.0,8.0,68,0.00,,SKC,0.00,VWS V14.01,2013-03-19 05:14:00,
2013-03-19 00:18:00,27.0,17.9,30.09,West,278,5.0,8.0,68,0.00,,SKC,0.00,VWS V14.01,2013-03-19 05:18:00,
2013-03-19 00:27:00,26.9,18.1,30.09,WNW,292,1.0,8.0,69,0.00,,SKC,0.00,VWS V14.01,2013-03-19 05:27:00,
2013-03-19 00:30:00,26.8,18.0,30.09,WNW,292,2.0,8.0,69,0.00,,SKC,0.00,VWS V14.01,2013-03-19 05:30:00,
2013-03-19 00:31:00,26.8,18.0,30.09,WNW,288,2.0,4.0,69,0.00,,SKC,0.00,VWS V14.01,2013-03-19 05:31:00,
2013-03-19 00:35:00,26.8,18.0,30.09,WNW,284,2.0,4.0,69,0.00,,SKC,0.00,VWS V14.01,2013-03-19 05:35:00,
2013-03-19 00:39:00,26.7,17.9,30.09,West,269,3.0,4.0,69,0.00,,SKC,0.00,VWS V14.01,2013-03-19 05:39:00,
2013-03-19 00:47:00,26.6,17.8,30.09,West,261,3.0,4.0,69,0.00,,SKC,0.00,VWS V14.01,2013-03-19 05:47:00,
2013-03-19 00:51:00,26.6,17.5,30.09,West,259,3.0,4.0,68,0.00,,SKC,0.00,VWS V14.01,2013-03-19 05:51:00,
2013-03-19 00:55:00,26.9,17.1,30.08,WSW,257,3.0,5.0,66,0.00,,SKC,0.00,VWS V14.01,2013-03-19 05:55:00,
2013-03-19 00:59:00,27.1,17.3,30.09,WSW,246,3.0,5.0,66,0.00,,SKC,0.00,VWS V14.01,2013-03-19 05:59:00,
2013-03-19 01:00:00,27.1,17.3,30.09,WSW,246,3.0,5.0,66,0.00,,SKC,0.00,VWS V14.01,2013-03-19 06:00:00,
2013-03-19 01:03:00,27.1,17.3,30.09,SW,236,4.0,4.0,66,0.00,,SKC,0.00,VWS V14.01,2013-03-19 06:03:00,
2013-03-19 01:11:00,26.8,17.3,30.09,WSW,257,3.0,7.0,67,0.00,,SKC,0.00,VWS V14.01,2013-03-19 06:11:00,
2013-03-19 01:19:00,26.8,17.3,30.09,West,263,3.0,7.0,67,0.00,,SKC,0.00,VWS V14.01,2013-03-19 06:19:00,
2013-03-19 01:23:00,26.8,17.3,30.10,West,264,3.0,7.0,67,0.00,,SKC,0.00,VWS V14.01,2013-03-19 06:23:00,
2013-03-19 01:27:00,26.7,17.6,30.09,West,264,2.0,7.0,68,0.00,,SKC,0.00,VWS V14.01,2013-03-19 06:27:00,
2013-03-19 01:29:00,26.6,17.8,30.09,West,264,2.0,7.0,69,0.00,,SKC,0.00,VWS V14.01,2013-03-19 06:29:00,
2013-03-19 01:30:00,26.6,17.8,30.09,West,264,2.0,7.0,69,0.00,,SKC,0.00,VWS V14.01,2013-03-19 06:30:00,
2013-03-19 01:35:00,26.5,17.7,30.10,West,265,3.0,4.0,69,0.00,,SKC,0.00,VWS V14.01,2013-03-19 06:35:00,
2013-03-19 01:39:00,26.7,17.6,30.10,West,265,3.0,4.0,68,0.00,,SKC,0.00,VWS V14.01,2013-03-19 06:39:00,
2013-03-19 01:43:00,26.7,17.6,30.10,WSW,256,2.0,4.0,68,0.00,,SKC,0.00,VWS V14.01,2013-03-19 06:43:00,
2013-03-19 01:47:00,26.6,17.5,30.10,WSW,249,2.0,4.0,68,0.00,,SKC,0.00,VWS V14.01,2013-03-19 06:47:00,
2013-03-19 01:55:00,26.6,17.5,30.11,WSW,258,3.0,4.0,68,0.00,,SKC,0.00,VWS V14.01,2013-03-19 06:55:00,
2013-03-19 01:59:00,26.5,17.7,30.10,West,262,3.0,4.0,69,0.00,,SKC,0.00,VWS V14.01,2013-03-19 06:59:00,
2013-03-19 02:00:00,26.5,17.7,30.10,West,269,3.0,4.0,69,0.00,,SKC,0.00,VWS V14.01,2013-03-19 07:00:00,
2013-03-19 02:07:00,26.8,18.0,30.10,West,273,3.0,5.0,69,0.00,,SKC,0.00,VWS V14.01,2013-03-19 07:07:00,
2013-03-19 02:15:00,27.1,18.0,30.11,WNW,292,2.0,5.0,68,0.00,,SKC,0.00,VWS V14.01,2013-03-19 07:15:00,
2013-03-19 02:23:00,27.1,18.0,30.11,WNW,292,2.0,5.0,68,0.00,,SKC,0.00,VWS V14.01,2013-03-19 07:23:00,
2013-03-19 02:29:00,27.1,18.0,30.11,WNW,292,2.0,5.0,68,0.00,,SKC,0.00,VWS V14.01,2013-03-19 07:29:00,
2013-03-19 02:30:00,27.1,18.0,30.11,WNW,292,2.0,5.0,68,0.00,,SKC,0.00,VWS V14.01,2013-03-19 07:30:00,
2013-03-19 02:31:00,27.1,18.0,30.11,WNW,292,2.0,2.0,68,0.00,,SKC,0.00,VWS V14.01,2013-03-19 07:31:00,
2013-03-19 02:35:00,27.1,18.0,30.12,WNW,292,2.0,2.0,68,0.00,,SKC,0.00,VWS V14.01,2013-03-19 07:35:00,
2013-03-19 02:43:00,27.1,18.0,30.12,WNW,292,2.0,2.0,68,0.00,,SKC,0.00,VWS V14.01,2013-03-19 07:43:00,
2013-03-19 02:51:00,27.1,18.0,30.12,WNW,292,2.0,2.0,68,0.00,,SKC,0.00,VWS V14.01,2013-03-19 07:51:00,
2013-03-19 02:55:00,27.1,18.0,30.12,WNW,292,2.0,2.0,68,0.00,,SKC,0.00,VWS V14.01,2013-03-19 07:55:00,
2013-03-19 02:59:00,27.0,17.9,30.12,WSW,250,3.0,3.0,68,0.00,,SKC,0.00,VWS V14.01,2013-03-19 07:59:00,
2013-03-19 03:00:00,27.0,17.9,30.12,WSW,250,3.0,3.0,68,0.00,,SKC,0.00,VWS V14.01,2013-03-19 08:00:00,
2013-03-19 03:03:00,26.9,18.1,30.12,WSW,250,2.0,4.0,69,0.00,,SKC,0.00,VWS V14.01,2013-03-19 08:03:00,
2013-03-19 03:07:00,26.8,18.0,30.11,WSW,250,1.0,4.0,69,0.00,,SKC,0.00,VWS V14.01,2013-03-19 08:07:00,
2013-03-19 03:15:00,26.8,17.7,30.11,West,278,2.0,4.0,68,0.00,,SKC,0.00,VWS V14.01,2013-03-19 08:15:00,
2013-03-19 03:23:00,26.9,17.4,30.11,West,278,0.0,4.0,67,0.00,,SKC,0.00,VWS V14.01,2013-03-19 08:23:00,
2013-03-19 03:27:00,26.9,17.4,30.11,West,278,0.0,4.0,67,0.00,,SKC,0.00,VWS V14.01,2013-03-19 08:27:00,
2013-03-19 03:29:00,26.9,17.4,30.11,West,278,0.0,4.0,67,0.00,,SKC,0.00,VWS V14.01,2013-03-19 08:29:00,
2013-03-19 03:30:00,26.9,17.4,30.11,West,278,0.0,4.0,67,0.00,,SKC,0.00,VWS V14.01,2013-03-19 08:30:00,
2013-03-19 03:36:00,26.9,17.1,30.11,West,279,0.0,0.0,66,0.00,,SKC,0.00,VWS V14.01,2013-03-19 08:36:00,
2013-03-19 03:40:00,27.0,17.2,30.11,West,279,0.0,0.0,66,0.00,,SKC,0.00,VWS V14.01,2013-03-19 08:40:00,
2013-03-19 03:44:00,27.0,17.2,30.11,West,279,0.0,0.0,66,0.00,,SKC,0.00,VWS V14.01,2013-03-19 08:44:00,
2013-03-19 03:48:00,26.9,17.1,30.11,West,278,0.0,0.0,66,0.00,,SKC,0.00,VWS V14.01,2013-03-19 08:48:00,
2013-03-19 03:52:00,26.9,17.4,30.11,West,278,0.0,0.0,67,0.00,,SKC,0.00,VWS V14.01,2013-03-19 08:52:00,
2013-03-19 03:56:00,26.8,17.3,30.11,West,279,0.0,0.0,67,0.00,,SKC,0.00,VWS V14.01,2013-03-19 08:56:00,
2013-03-19 03:59:00,26.7,17.2,30.11,WNW,290,2.0,3.0,67,0.00,,SKC,0.00,VWS V14.01,2013-03-19 08:59:00,
2013-03-19 04:00:00,26.7,17.2,30.11,WNW,290,1.0,2.0,67,0.00,,SKC,0.00,VWS V14.01,2013-03-19 09:00:00,
2013-03-19 04:08:00,26.5,17.0,30.11,WNW,290,2.0,3.0,67,0.00,,SKC,0.00,VWS V14.01,2013-03-19 09:08:00,
2013-03-19 04:12:00,26.4,16.9,30.11,NW,314,1.0,4.0,67,0.00,,SKC,0.00,VWS V14.01,2013-03-19 09:12:00,
2013-03-19 04:20:00,26.3,16.9,30.11,NW,314,1.0,4.0,67,0.00,,SKC,0.00,VWS V14.01,2013-03-19 09:20:00,
2013-03-19 04:24:00,26.2,16.8,30.11,NW,314,1.0,4.0,67,0.00,,SKC,0.00,VWS V14.01,2013-03-19 09:24:00,
2013-03-19 04:28:00,26.2,16.8,30.11,NW,314,0.0,4.0,67,0.00,,SKC,0.00,VWS V14.01,2013-03-19 09:28:00,
2013-03-19 04:29:00,26.1,16.7,30.11,NW,314,0.0,4.0,67,0.00,,SKC,0.00,VWS V14.01,2013-03-19 09:29:00,
2013-03-19 04:30:00,26.1,16.7,30.11,NW,314,0.0,4.0,67,0.00,,SKC,0.00,VWS V14.01,2013-03-19 09:30:00,
2013-03-19 04:36:00,26.1,16.7,30.10,NW,314,0.0,3.0,67,0.00,,SKC,0.00,VWS V14.01,2013-03-19 09:36:00,
2013-03-19 04:40:00,25.7,17.3,30.10,NW,314,0.0,3.0,70,0.00,,SKC,0.00,VWS V14.01,2013-03-19 09:40:00,
2013-03-19 04:44:00,25.2,17.1,30.10,NW,314,0.0,3.0,71,0.00,,SKC,0.00,VWS V14.01,2013-03-19 09:44:00,
2013-03-19 04:48:00,24.9,16.8,30.10,NW,314,0.0,3.0,71,0.00,,SKC,0.00,VWS V14.01,2013-03-19 09:48:00,
2013-03-19 04:52:00,24.7,16.6,30.10,NW,314,0.0,3.0,71,0.00,,SKC,0.00,VWS V14.01,2013-03-19 09:52:00,
2013-03-19 04:56:00,24.7,16.6,30.11,NW,314,0.0,3.0,71,0.00,,SKC,0.00,VWS V14.01,2013-03-19 09:56:00,
2013-03-19 04:59:00,24.7,17.0,30.11,NW,314,0.0,3.0,72,0.00,,SKC,0.00,VWS V14.01,2013-03-19 09:59:00,
2013-03-19 05:00:00,24.6,16.9,30.11,NW,314,0.0,0.0,72,0.00,,SKC,0.00,VWS V14.01,2013-03-19 10:00:00,
2013-03-19 05:04:00,24.5,16.8,30.11,NNW,343,4.0,5.0,72,0.00,,SKC,0.00,VWS V14.01,2013-03-19 10:04:00,
2013-03-19 05:08:00,24.3,16.9,30.11,NNW,345,3.0,5.0,73,0.00,,SKC,0.00,VWS V14.01,2013-03-19 10:08:00,
2013-03-19 05:12:00,23.9,17.1,30.11,NNW,347,2.0,5.0,75,0.00,,SKC,0.00,VWS V14.01,2013-03-19 10:12:00,
2013-03-19 05:20:00,23.4,17.6,30.12,NNW,347,3.0,5.0,78,0.00,,SKC,0.00,VWS V14.01,2013-03-19 10:20:00,
2013-03-19 05:24:00,23.2,17.4,30.12,North,5,4.0,5.0,78,0.00,,SKC,0.00,VWS V14.01,2013-03-19 10:24:00,
2013-03-19 05:29:00,23.0,17.2,30.12,North,355,3.0,5.0,78,0.00,,SKC,0.00,VWS V14.01,2013-03-19 10:29:00,
2013-03-19 05:30:00,23.0,17.2,30.12,North,355,3.0,5.0,78,0.00,,SKC,0.00,VWS V14.01,2013-03-19 10:30:00,
2013-03-19 05:32:00,22.9,17.4,30.13,North,355,2.0,5.0,79,0.00,,SKC,0.00,VWS V14.01,2013-03-19 10:32:00,
2013-03-19 05:40:00,22.8,17.3,30.13,North,355,0.0,5.0,79,0.00,,SKC,0.00,VWS V14.01,2013-03-19 10:40:00,
2013-03-19 05:44:00,22.7,17.5,30.14,North,355,0.0,5.0,80,0.00,,SKC,0.00,VWS V14.01,2013-03-19 10:44:00,
2013-03-19 05:48:00,22.7,17.5,30.14,North,355,0.0,5.0,80,0.00,,SKC,0.00,VWS V14.01,2013-03-19 10:48:00,
2013-03-19 05:56:00,22.6,17.1,30.14,North,355,0.0,5.0,79,0.00,,SKC,0.00,VWS V14.01,2013-03-19 10:56:00,
2013-03-19 06:00:00,22.5,17.3,30.14,North,355,3.0,4.0,80,0.00,,SKC,0.00,VWS V14.01,2013-03-19 11:00:00,
2013-03-19 06:04:00,22.3,17.1,30.14,North,355,1.0,4.0,80,0.00,,SKC,0.00,VWS V14.01,2013-03-19 11:04:00,
2013-03-19 06:08:00,22.1,16.9,30.14,North,355,0.0,4.0,80,0.00,,SKC,0.00,VWS V14.01,2013-03-19 11:08:00,
2013-03-19 06:16:00,22.0,17.1,30.14,North,355,0.0,4.0,81,0.00,,SKC,0.00,VWS V14.01,2013-03-19 11:16:00,
2013-03-19 06:20:00,22.0,17.1,30.14,North,355,0.0,4.0,81,0.00,,SKC,0.00,VWS V14.01,2013-03-19 11:20:00,
2013-03-19 06:24:00,21.9,16.7,30.14,North,355,0.0,4.0,80,0.00,,SKC,0.00,VWS V14.01,2013-03-19 11:24:00,
2013-03-19 06:28:00,21.8,16.6,30.14,North,355,0.0,4.0,80,0.00,,SKC,0.00,VWS V14.01,2013-03-19 11:28:00,
2013-03-19 06:29:00,21.7,16.5,30.14,North,355,0.0,4.0,80,0.00,,SKC,0.00,VWS V14.01,2013-03-19 11:29:00,
2013-03-19 06:30:00,21.7,16.5,30.14,North,355,0.0,4.0,80,0.00,,SKC,0.00,VWS V14.01,2013-03-19 11:30:00,
2013-03-19 06:32:00,21.6,16.7,30.15,North,355,3.0,4.0,81,0.00,,SKC,0.00,VWS V14.01,2013-03-19 11:32:00,
2013-03-19 06:36:00,21.5,16.6,30.15,North,355,3.0,4.0,81,0.00,,SKC,0.00,VWS V14.01,2013-03-19 11:36:00,
2013-03-19 06:40:00,21.4,16.5,30.15,North,355,2.0,4.0,81,0.00,,SKC,0.00,VWS V14.01,2013-03-19 11:40:00,
2013-03-19 06:44:00,21.4,16.8,30.15,North,355,0.0,4.0,82,0.00,,SKC,0.00,VWS V14.01,2013-03-19 11:44:00,
2013-03-19 06:52:00,21.4,16.5,30.15,North,355,0.0,4.0,81,0.00,,SKC,0.00,VWS V14.01,2013-03-19 11:52:00,
2013-03-19 06:56:00,21.3,16.4,30.16,North,355,0.0,4.0,81,0.00,,SKC,0.00,VWS V14.01,2013-03-19 11:56:00,
2013-03-19 06:59:00,21.3,16.4,30.16,North,355,0.0,4.0,81,0.00,,SKC,0.00,VWS V14.01,2013-03-19 11:59:00,
2013-03-19 07:00:00,21.3,16.4,30.16,North,355,0.0,0.0,81,0.00,,SKC,0.00,VWS V14.01,2013-03-19 12:00:00,
2013-03-19 07:04:00,21.2,16.3,30.15,North,355,0.0,0.0,81,0.00,,SKC,0.00,VWS V14.01,2013-03-19 12:04:00,
2013-03-19 07:12:00,21.1,16.5,30.15,North,355,0.0,0.0,82,0.00,,SKC,0.00,VWS V14.01,2013-03-19 12:12:00,
2013-03-19 07:21:00,21.0,16.4,30.16,North,355,0.0,0.0,82,0.00,,SKC,0.00,VWS V14.01,2013-03-19 12:21:00,
2013-03-19 07:25:00,21.0,16.4,30.16,North,355,0.0,0.0,82,0.00,,SKC,0.00,VWS V14.01,2013-03-19 12:25:00,
2013-03-19 07:29:00,21.0,16.4,30.16,North,355,0.0,0.0,82,0.00,,SKC,0.00,VWS V14.01,2013-03-19 12:29:00,
2013-03-19 07:30:00,21.0,16.4,30.16,North,355,0.0,0.0,82,0.00,,SKC,0.00,VWS V14.01,2013-03-19 12:30:00,
2013-03-19 07:33:00,21.0,16.4,30.16,North,355,0.0,0.0,82,0.00,,SKC,0.00,VWS V14.01,2013-03-19 12:33:00,
2013-03-19 07:37:00,21.1,16.5,30.16,North,355,0.0,0.0,82,0.00,,SKC,0.00,VWS V14.01,2013-03-19 12:37:00,
2013-03-19 07:41:00,21.2,16.3,30.17,North,355,0.0,0.0,81,0.00,,SKC,0.00,VWS V14.01,2013-03-19 12:41:00,
2013-03-19 07:45:00,21.2,16.3,30.17,North,355,0.0,0.0,81,0.00,,SKC,0.00,VWS V14.01,2013-03-19 12:45:00,
2013-03-19 07:53:00,21.2,16.3,30.17,North,355,0.0,3.0,81,0.00,,SKC,0.00,VWS V14.01,2013-03-19 12:53:00,
2013-03-19 07:57:00,21.1,16.2,30.17,North,355,0.0,3.0,81,0.00,,SKC,0.00,VWS V14.01,2013-03-19 12:57:00,
2013-03-19 07:59:00,21.1,16.5,30.18,North,355,0.0,3.0,82,0.00,,SKC,0.00,VWS V14.01,2013-03-19 12:59:00,
2013-03-19 08:00:00,21.1,16.5,30.18,North,355,0.0,3.0,82,0.00,,SKC,0.00,VWS V14.01,2013-03-19 13:00:00,
2013-03-19 08:05:00,21.2,16.9,30.18,North,355,0.0,0.0,83,0.00,,SKC,0.00,VWS V14.01,2013-03-19 13:05:00,
2013-03-19 08:09:00,21.3,17.0,30.18,North,355,0.0,2.0,83,0.00,,SKC,0.00,VWS V14.01,2013-03-19 13:09:00,
2013-03-19 08:30:00,21.6,17.2,30.18,North,0,1.0,4.0,83,0.00,,SKC,0.00,VWS V14.01,2013-03-19 13:30:00,
2013-03-19 09:00:00,23.2,17.4,30.19,NNE,22,3.0,5.0,78,0.00,,SKC,0.00,VWS V14.01,2013-03-19 14:00:00,
2013-03-19 09:30:00,24.2,17.1,30.21,NE,45,0.0,4.0,74,0.00,,SKC,0.00,VWS V14.01,2013-03-19 14:30:00,
2013-03-19 10:00:00,25.2,17.5,30.22,NE,45,0.0,0.0,72,0.00,,SKC,0.00,VWS V14.01,2013-03-19 15:00:00,
2013-03-19 10:30:00,26.9,18.1,30.22,ENE,68,0.0,3.0,69,0.00,,SKC,0.00,VWS V14.01,2013-03-19 15:30:00,
2013-03-19 11:00:00,27.6,17.4,30.23,ENE,68,0.0,4.0,65,0.00,,SKC,0.00,VWS V14.01,2013-03-19 16:00:00,
2013-03-19 11:30:00,29.3,17.9,30.23,SSE,158,2.0,7.0,62,0.00,,SKC,0.00,VWS V14.01,2013-03-19 16:30:00,
2013-03-19 12:00:00,31.3,17.9,30.23,South,180,2.0,7.0,57,0.00,,SKC,0.00,VWS V14.01,2013-03-19 17:00:00,
2013-03-19 12:30:00,34.0,19.5,30.22,SE,135,0.0,5.0,55,0.00,,SKC,0.00,VWS V14.01,2013-03-19 17:30:00,
2013-03-19 13:00:00,36.5,20.6,30.22,South,180,4.0,12.0,52,0.00,,SKC,0.00,VWS V14.01,2013-03-19 18:00:00,
2013-03-19 13:30:00,40.2,18.4,30.20,SSW,202,8.0,17.0,41,0.00,,SKC,0.00,VWS V14.01,2013-03-19 18:30:00,
2013-03-19 14:00:00,42.7,21.2,30.19,SSW,202,10.0,17.0,42,0.00,,SKC,0.00,VWS V14.01,2013-03-19 19:00:00,
2013-03-19 14:30:00,45.4,28.4,30.17,SSW,202,8.0,22.0,51,0.00,,SKC,0.00,VWS V14.01,2013-03-19 19:30:00,
2013-03-19 15:00:00,46.5,29.4,30.16,West,270,6.0,15.0,51,0.00,,SKC,0.00,VWS V14.01,2013-03-19 20:00:00,
2013-03-19 15:30:00,48.2,26.8,30.14,WNW,292,8.0,16.0,43,0.00,,SKC,0.00,VWS V14.01,2013-03-19 20:30:00,
2013-03-19 16:00:00,48.1,26.7,30.14,WNW,292,6.0,12.0,43,0.00,,SKC,0.00,VWS V14.01,2013-03-19 21:00:00,
2013-03-19 16:30:00,49.8,26.5,30.14,WNW,292,8.0,21.0,40,0.00,,SKC,0.00,VWS V14.01,2013-03-19 21:30:00,
2013-03-19 17:13:00,50.4,22.4,30.15,NNW,333,9.0,19.0,33,0.00,,SKC,0.00,VWS V14.01,2013-03-19 22:13:00,
2013-03-19 17:17:00,50.4,22.4,30.15,North,355,11.0,19.0,33,0.00,,SKC,0.00,VWS V14.01,2013-03-19 22:17:00,
2013-03-19 17:21:00,50.1,22.1,30.15,NW,323,14.0,19.0,33,0.00,,SKC,0.00,VWS V14.01,2013-03-19 22:21:00,
2013-03-19 17:25:00,49.7,22.5,30.15,North,355,9.0,19.0,34,0.00,,SKC,0.00,VWS V14.01,2013-03-19 22:25:00,
2013-03-19 17:29:00,49.6,21.7,30.15,North,9,15.0,21.0,33,0.00,,SKC,0.00,VWS V14.01,2013-03-19 22:29:00,
2013-03-19 17:37:00,49.3,22.1,30.16,NW,313,13.0,23.0,34,0.00,,SKC,0.00,VWS V14.01,2013-03-19 22:37:00,
2013-03-19 17:41:00,49.1,21.3,30.16,NW,317,10.0,23.0,33,0.00,,SKC,0.00,VWS V14.01,2013-03-19 22:41:00,
2013-03-19 17:45:00,49.0,21.2,30.16,NW,322,16.0,25.0,33,0.00,,SKC,0.00,VWS V14.01,2013-03-19 22:45:00,
2013-03-19 17:49:00,48.8,21.7,30.16,NNW,329,15.0,25.0,34,0.00,,SKC,0.00,VWS V14.01,2013-03-19 22:49:00,
2013-03-19 17:53:00,48.4,22.0,30.17,North,360,21.0,25.0,35,0.00,,SKC,0.00,VWS V14.01,2013-03-19 22:53:00,
2013-03-19 17:59:00,48.0,21.0,30.17,NNE,15,9.0,25.0,34,0.00,,SKC,0.00,VWS V14.01,2013-03-19 22:59:00,
2013-03-19 18:05:00,47.9,21.6,30.17,NW,309,10.0,24.0,35,0.00,,SKC,0.00,VWS V14.01,2013-03-19 23:05:00,
2013-03-19 18:13:00,47.6,20.6,30.17,North,351,17.0,24.0,34,0.00,,SKC,0.00,VWS V14.01,2013-03-19 23:13:00,
2013-03-19 18:17:00,47.5,21.9,30.18,NNE,23,7.0,24.0,36,0.00,,SKC,0.00,VWS V14.01,2013-03-19 23:17:00,
2013-03-19 18:25:00,47.2,22.3,30.18,North,5,11.0,24.0,37,0.00,,SKC,0.00,VWS V14.01,2013-03-19 23:25:00,
2013-03-19 18:29:00,47.0,21.5,30.18,North,355,8.0,24.0,36,0.00,,SKC,0.00,VWS V14.01,2013-03-19 23:29:00,
2013-03-19 18:37:00,46.3,21.5,30.18,North,5,4.0,20.0,37,0.00,,SKC,0.00,VWS V14.01,2013-03-19 23:37:00,
2013-03-19 18:41:00,46.2,20.7,30.18,North,355,14.0,20.0,36,0.00,,SKC,0.00,VWS V14.01,2013-03-19 23:41:00,
2013-03-19 18:46:00,45.8,19.7,30.18,North,5,9.0,20.0,35,0.00,,SKC,0.00,VWS V14.01,2013-03-19 23:46:00,
2013-03-19 18:50:00,45.5,20.1,30.18,North,360,6.0,20.0,36,0.00,,SKC,0.00,VWS V14.01,2013-03-19 23:50:00,
2013-03-19 18:54:00,45.3,20.6,30.18,NNW,334,7.0,20.0,37,0.00,,SKC,0.00,VWS V14.01,2013-03-19 23:54:00,
2013-03-19 18:59:00,45.0,20.3,30.19,North,350,6.0,20.0,37,0.00,,SKC,0.00,VWS V14.01,2013-03-19 23:59:00,
2013-03-19 19:02:00,44.9,20.2,30.19,NNW,348,11.0,12.0,37,0.00,,SKC,0.00,VWS V14.01,2013-03-20 00:02:00,
2013-03-19 19:06:00,44.6,20.6,30.19,NNW,346,10.0,16.0,38,0.00,,SKC,0.00,VWS V14.01,2013-03-20 00:06:00,
2013-03-19 19:10:00,44.1,21.3,30.19,NW,324,8.0,17.0,40,0.00,,SKC,0.00,VWS V14.01,2013-03-20 00:10:00,
2013-03-19 19:14:00,43.5,21.4,30.19,North,360,10.0,17.0,41,0.00,,SKC,0.00,VWS V14.01,2013-03-20 00:14:00,
2013-03-19 19:22:00,42.5,21.6,30.19,North,360,11.0,17.0,43,0.00,,SKC,0.00,VWS V14.01,2013-03-20 00:22:00,
2013-03-19 19:29:00,41.8,22.0,30.20,North,360,10.0,17.0,45,0.00,,SKC,0.00,VWS V14.01,2013-03-20 00:29:00,
2013-03-19 19:30:00,41.8,22.0,30.20,North,360,10.0,10.0,45,0.00,,SKC,0.00,VWS V14.01,2013-03-20 00:30:00,
2013-03-19 19:38:00,40.7,22.5,30.20,North,5,7.0,13.0,48,0.00,,SKC,0.00,VWS V14.01,2013-03-20 00:38:00,
2013-03-19 19:42:00,40.5,23.3,30.20,North,350,8.0,14.0,50,0.00,,SKC,0.00,VWS V14.01,2013-03-20 00:42:00,
2013-03-19 19:46:00,40.0,23.4,30.20,North,355,8.0,14.0,51,0.00,,SKC,0.00,VWS V14.01,2013-03-20 00:46:00,
2013-03-19 19:54:00,39.2,23.1,30.22,NNE,14,10.0,14.0,52,0.00,,SKC,0.00,VWS V14.01,2013-03-20 00:54:00,
2013-03-19 19:58:00,38.9,22.8,30.22,North,355,6.0,14.0,52,0.00,,SKC,0.00,VWS V14.01,2013-03-20 00:58:00,
2013-03-19 19:59:00,38.7,22.6,30.22,North,360,10.0,14.0,52,0.00,,SKC,0.00,VWS V14.01,2013-03-20 00:59:00,
2013-03-19 20:06:00,38.3,22.7,30.22,NNW,346,8.0,12.0,53,0.00,,SKC,0.00,VWS V14.01,2013-03-20 01:06:00,
2013-03-19 20:10:00,38.0,22.9,30.22,North,355,8.0,12.0,54,0.00,,SKC,0.00,VWS V14.01,2013-03-20 01:10:00,
2013-03-19 20:14:00,37.7,22.6,30.22,North,355,9.0,12.0,54,0.00,,SKC,0.00,VWS V14.01,2013-03-20 01:14:00,
2013-03-19 20:22:00,37.0,22.8,30.23,North,355,5.0,12.0,56,0.00,,SKC,0.00,VWS V14.01,2013-03-20 01:22:00,
2013-03-19 20:26:00,36.6,23.2,30.23,North,355,5.0,12.0,58,0.00,,SKC,0.00,VWS V14.01,2013-03-20 01:26:00,
2013-03-19 20:34:00,36.2,23.7,30.24,NNE,15,4.0,9.0,60,0.00,,SKC,0.00,VWS V14.01,2013-03-20 01:34:00,
2013-03-19 20:38:00,36.1,24.0,30.24,North,355,8.0,10.0,61,0.00,,SKC,0.00,VWS V14.01,2013-03-20 01:38:00,
2013-03-19 20:46:00,35.6,23.9,30.25,North,360,7.0,13.0,62,0.00,,SKC,0.00,VWS V14.01,2013-03-20 01:46:00,
2013-03-19 20:50:00,35.4,24.1,30.25,North,355,7.0,13.0,63,0.00,,SKC,0.00,VWS V14.01,2013-03-20 01:50:00,
2013-03-19 20:54:00,35.4,24.5,30.25,North,351,9.0,13.0,64,0.00,,SKC,0.00,VWS V14.01,2013-03-20 01:54:00,
2013-03-19 20:58:00,35.3,24.7,30.26,North,355,8.0,13.0,65,0.00,,SKC,0.00,VWS V14.01,2013-03-20 01:58:00,
2013-03-19 20:59:00,35.2,24.6,30.26,North,355,8.0,13.0,65,0.00,,SKC,0.00,VWS V14.01,2013-03-20 01:59:00,
2013-03-19 21:06:00,34.9,24.7,30.26,North,355,6.0,12.0,66,0.00,,SKC,0.00,VWS V14.01,2013-03-20 02:06:00,
2013-03-19 21:10:00,34.5,24.3,30.26,North,360,8.0,12.0,66,0.00,,SKC,0.00,VWS V14.01,2013-03-20 02:10:00,
2013-03-19 21:18:00,34.2,24.0,30.27,North,360,7.0,13.0,66,0.00,,SKC,0.00,VWS V14.01,2013-03-20 02:18:00,
2013-03-19 21:22:00,34.2,24.0,30.27,North,355,8.0,14.0,66,0.00,,SKC,0.00,VWS V14.01,2013-03-20 02:22:00,
2013-03-19 21:26:00,33.9,24.1,30.27,North,360,7.0,14.0,67,0.00,,SKC,0.00,VWS V14.01,2013-03-20 02:26:00,
2013-03-19 21:29:00,33.7,23.9,30.27,NNW,348,8.0,14.0,67,0.00,,SKC,0.00,VWS V14.01,2013-03-20 02:29:00,
2013-03-19 21:30:00,33.6,23.8,30.27,North,350,6.0,9.0,67,0.00,,SKC,0.00,VWS V14.01,2013-03-20 02:30:00,
2013-03-19 21:34:00,33.5,23.7,30.27,North,355,4.0,12.0,67,0.00,,SKC,0.00,VWS V14.01,2013-03-20 02:34:00,
2013-03-19 21:38:00,33.5,23.7,30.27,North,355,9.0,14.0,67,0.00,,SKC,0.00,VWS V14.01,2013-03-20 02:38:00,
2013-03-19 21:46:00,33.6,23.5,30.28,NNE,19,15.0,16.0,66,0.00,,SKC,0.00,VWS V14.01,2013-03-20 02:46:00,
2013-03-19 21:50:00,33.5,23.7,30.29,NNW,342,13.0,16.0,67,0.00,,SKC,0.00,VWS V14.01,2013-03-20 02:50:00,
2013-03-19 21:54:00,33.1,23.7,30.29,North,355,11.0,18.0,68,0.00,,SKC,0.00,VWS V14.01,2013-03-20 02:54:00,
2013-03-19 21:58:00,32.6,22.9,30.29,North,360,16.0,19.0,67,0.00,,SKC,0.00,VWS V14.01,2013-03-20 02:58:00,
2013-03-19 21:59:00,32.6,22.9,30.29,North,360,12.0,19.0,67,0.00,,SKC,0.00,VWS V14.01,2013-03-20 02:59:00,
2013-03-19 22:06:00,32.3,22.6,30.30,North,360,13.0,17.0,67,0.00,,SKC,0.00,VWS V14.01,2013-03-20 03:06:00,
2013-03-19 22:10:00,32.1,22.4,30.30,North,5,15.0,17.0,67,0.00,,SKC,0.00,VWS V14.01,2013-03-20 03:10:00,
2013-03-19 22:18:00,31.8,22.1,30.31,North,351,9.0,18.0,67,0.00,,SKC,0.00,VWS V14.01,2013-03-20 03:18:00,
2013-03-19 22:26:00,31.2,22.2,30.32,North,355,13.0,18.0,69,0.00,,SKC,0.00,VWS V14.01,2013-03-20 03:26:00,
2013-03-19 22:29:00,31.0,22.0,30.32,North,355,10.0,18.0,69,0.00,,SKC,0.00,VWS V14.01,2013-03-20 03:29:00,
2013-03-19 22:34:00,31.0,22.0,30.32,North,5,19.0,21.0,69,0.00,,SKC,0.00,VWS V14.01,2013-03-20 03:34:00,
2013-03-19 22:38:00,31.1,21.8,30.32,NNE,13,8.0,21.0,68,0.00,,SKC,0.00,VWS V14.01,2013-03-20 03:38:00,
2013-03-19 22:42:00,30.8,21.9,30.33,North,360,12.0,21.0,69,0.00,,SKC,0.00,VWS V14.01,2013-03-20 03:42:00,
2013-03-19 22:46:00,30.6,21.6,30.33,North,360,17.0,21.0,69,0.00,,SKC,0.00,VWS V14.01,2013-03-20 03:46:00,
2013-03-19 22:50:00,30.4,21.5,30.33,North,360,20.0,22.0,69,0.00,,SKC,0.00,VWS V14.01,2013-03-20 03:50:00,
2013-03-19 22:59:00,29.6,21.0,30.34,North,10,12.0,22.0,70,0.00,,SKC,0.00,VWS V14.01,2013-03-20 03:59:00,
2013-03-19 23:03:00,29.2,20.6,30.34,NNE,33,10.0,19.0,70,0.00,,SKC,0.00,VWS V14.01,2013-03-20 04:03:00,
2013-03-19 23:11:00,28.8,20.6,30.35,NNE,13,10.0,19.0,71,0.00,,SKC,0.00,VWS V14.01,2013-03-20 04:11:00,
2013-03-19 23:15:00,28.5,20.6,30.35,North,360,13.0,19.0,72,0.00,,SKC,0.00,VWS V14.01,2013-03-20 04:15:00,
2013-03-19 23:19:00,28.3,20.8,30.35,North,11,14.0,19.0,73,0.00,,SKC,0.00,VWS V14.01,2013-03-20 04:19:00,
2013-03-19 23:23:00,28.2,20.4,30.35,NNE,22,11.0,19.0,72,0.00,,SKC,0.00,VWS V14.01,2013-03-20 04:23:00,
2013-03-19 23:27:00,28.1,19.9,30.36,NNW,341,8.0,20.0,71,0.00,,SKC,0.00,VWS V14.01,2013-03-20 04:27:00,
2013-03-19 23:31:00,27.8,19.3,30.36,North,349,15.0,18.0,70,0.00,,SKC,0.00,VWS V14.01,2013-03-20 04:31:00,
2013-03-19 23:39:00,27.2,19.1,30.36,North,350,12.0,23.0,71,0.00,,SKC,0.00,VWS V14.01,2013-03-20 04:39:00,
2013-03-19 23:43:00,26.9,18.8,30.36,North,355,10.0,23.0,71,0.00,,SKC,0.00,VWS V14.01,2013-03-20 04:43:00,
2013-03-19 23:47:00,26.8,18.7,30.36,North,355,13.0,23.0,71,0.00,,SKC,0.00,VWS V14.01,2013-03-20 04:47:00,
2013-03-19 23:55:00,26.4,18.0,30.36,North,360,13.0,23.0,70,0.00,,SKC,0.00,VWS V14.01,2013-03-20 04:55:00,
2013-03-19 23:59:00,26.3,18.2,30.37,NNW,345,14.0,23.0,71,0.00,,SKC,0.00,VWS V14.01,2013-03-20 04:59:00,